[[{"header":{"parameterUnit":"m.s-1","parameterCategory":2,"la1":30.2991,"la2":30.254,"lo1":-89.0895,"lo2":-89.0444,"dy":0.0017,"dx":0.0017,"nx":28,"ny":28,"refTime":"2024-07-28T09:00:00:Z","depth":"0","parameterNumber":2,"parameterNumberName":"U-component_of_CURRENTS"},"data":[0,0,0,0,0,0,0,0,0,0,0,0,0,0,0,0,0,0,0,0,0,0,0,0,0,0,0,0,0,0,0,0,0,0,0,0,0,0,0,0,0,0,0,0,0,0,0,0,0,0,0,0,0,0,0,0,0,0,-0.162,-0.1621,0,-0.1706,-0.1706,-0.1707,-0.1718,-0.1717,-0.1717,-0.1717,-0.1688,-0.1688,-0.1687,0,0,0,0,0,0,0,0,0,0,0,0,0,-0.1472,-0.1474,-0.162,-0.1621,-0.1623,-0.1706,-0.1706,-0.1707,-0.1718,-0.1717,-0.1717,-0.1717,-0.1688,-0.1688,-0.1687,0,0,0,0,0,0,0,0,0,0,0,0,0,-0.1539,-0.1475,-0.1619,-0.1643,-0.1646,-0.1706,-0.1706,-0.1707,-0.1718,-0.1717,-0.1717,-0.1717,-0.1689,-0.1688,-0.1687,-0.1692,0,0,-0.1685,-0.1685,0,0,0,0,0,0,0,0,-0.1535,-0.1544,-0.1638,-0.1641,-0.1645,-0.1706,-0.1644,-0.1698,-0.1718,-0.1684,-0.1717,-0.1716,-0.1687,-0.1687,-0.1697,-0.169,-0.1689,-0.1685,-0.1684,-0.1684,-0.1684,0,0,0,0,0,0,0,-0.1531,-0.1541,-0.1648,-0.1639,-0.1644,-0.1652,-0.166,-0.1655,-0.1681,-0.1687,-0.169,-0.1709,-0.1688,-0.1698,-0.1697,-0.1689,-0.1685,-0.1684,-0.1684,-0.1683,-0.1672,-0.1672,0,0,0,0,0,0,-0.1532,-0.1536,-0.1645,-0.1651,-0.1595,-0.1655,-0.1664,-0.1682,-0.1683,-0.1686,-0.1709,-0.1709,-0.17,-0.1697,-0.1695,-0.1691,-0.1684,-0.1683,-0.1683,-0.1672,-0.1672,-0.1672,0,0,0,0,0,0,-0.1529,-0.1541,-0.1642,-0.16,-0.1614,-0.1659,-0.1678,-0.1684,-0.1696,-0.1702,-0.1701,-0.1716,-0.1699,-0.1696,-0.17,-0.169,-0.1683,-0.1682,-0.1671,-0.1672,-0.1672,-0.1687,0,0,0,0,0,0,-0.1524,-0.1539,-0.1542,-0.16,-0.1617,-0.1678,-0.168,-0.1686,-0.1711,-0.1712,-0.1708,-0.1705,-0.1699,-0.1702,-0.17,-0.1688,-0.1682,-0.1671,-0.1671,-0.1672,-0.1686,-0.1687,-0.1688,0,0,0,0,0,-0.1518,-0.153,-0.1541,-0.1555,-0.1623,-0.1679,-0.1687,-0.1713,-0.1712,-0.172,-0.1722,-0.1705,-0.1701,-0.1702,-0.1699,-0.1687,-0.1671,-0.1671,-0.1672,-0.1685,-0.1687,-0.1688,0,0,0,0,0,0,-0.1467,-0.1535,-0.1548,-0.1579,-0.1626,-0.1683,-0.1696,-0.1715,-0.1725,-0.1722,-0.1716,-0.1714,-0.1708,-0.1701,-0.1702,-0.1685,-0.1679,-0.1679,-0.169,-0.1692,-0.1693,-0.1698,-0.1681,0,0,0,0,0,-0.1459,-0.1482,-0.155,-0.1572,-0.1598,-0.1645,-0.1667,-0.1692,-0.1719,-0.1724,-0.1723,-0.1716,-0.1708,-0.1704,-0.1698,-0.1695,-0.1683,-0.1683,-0.1684,-0.1685,-0.1688,-0.1672,-0.1672,-0.1673,-0.1673,-0.1673,0,0,-0.1448,-0.1486,-0.15,-0.1562,-0.1598,-0.1648,-0.1656,-0.1699,-0.1728,-0.1717,-0.1735,-0.1721,-0.1709,-0.1706,-0.1702,-0.1698,-0.1677,-0.1686,-0.1687,-0.1689,-0.1673,-0.1672,-0.1672,-0.1673,-0.1673,-0.1673,0,0,-0.145,-0.1471,-0.15,-0.1545,-0.1609,-0.1641,-0.1655,-0.1714,-0.1723,-0.1748,-0.1739,-0.1722,-0.1722,-0.1708,-0.17,-0.1704,-0.1684,-0.1699,-0.1709,-0.1693,-0.1693,-0.1693,-0.1671,-0.1668,-0.1699,-0.1699,-0.1699,0,-0.1431,-0.1483,-0.1515,-0.1565,-0.1608,-0.1641,-0.1694,-0.1712,-0.1759,-0.1764,-0.1753,-0.1744,-0.172,-0.1716,-0.171,-0.1704,-0.1698,-0.1704,-0.1695,-0.1694,-0.1694,-0.1671,-0.1668,-0.17,-0.17,-0.17,-0.17,0,-0.1474,-0.1514,-0.1537,-0.1608,-0.1651,-0.1699,-0.1749,-0.1768,-0.1774,-0.1789,-0.1784,-0.1759,-0.1749,-0.1732,-0.1719,-0.1704,-0.1701,-0.1698,-0.1691,-0.1695,-0.1671,-0.1667,-0.1701,-0.1701,-0.1701,-0.1701,0,0,-0.1436,-0.1544,-0.1552,-0.1599,-0.1682,-0.1726,-0.1765,-0.1811,-0.1832,-0.183,-0.1839,-0.1803,-0.1779,-0.1768,-0.1744,-0.1724,-0.1694,-0.171,-0.1709,-0.1688,-0.1662,-0.1558,-0.1545,-0.1697,-0.1697,-0.1697,-0.1645,0,-0.1459,-0.1552,-0.1602,-0.1687,-0.1744,-0.1791,-0.1828,-0.1866,-0.1876,-0.1883,-0.1839,-0.1833,-0.1797,-0.1784,-0.1756,-0.1712,-0.1688,-0.1708,-0.1662,-0.166,-0.1568,-0.1538,-0.1416,-0.1351,-0.1642,-0.1641,-0.1641,0,-0.1484,-0.155,-0.1628,-0.174,-0.1768,-0.1807,-0.1875,-0.1918,-0.1928,-0.1931,-0.1912,-0.1887,-0.184,-0.181,-0.1739,-0.1759,-0.1709,-0.1675,-0.1673,-0.1569,-0.155,-0.1396,-0.1334,-0.1314,-0.1635,-0.1636,-0.1636,0,-0.145,-0.1568,-0.1623,-0.1664,-0.1782,-0.1808,-0.1863,-0.1911,-0.1937,-0.1948,-0.1947,-0.1916,-0.1868,-0.1826,-0.1724,-0.1743,-0.1641,-0.1659,-0.1524,-0.1517,-0.1398,-0.138,-0.1308,-0.1613,-0.1613,-0.1613,-0.1613,0,-0.146,-0.151,-0.1601,-0.1642,-0.1698,-0.1791,-0.184,-0.1889,-0.1932,-0.1945,-0.1949,-0.1929,-0.1868,-0.1797,-0.1736,-0.1594,-0.1643,-0.1512,-0.149,-0.1398,-0.1381,-0.1345,-0.1377,-0.1611,-0.1611,-0.1612,-0.1612,0,-0.1412,-0.1475,-0.1544,-0.1655,-0.1677,-0.1714,-0.1816,-0.1855,-0.1908,-0.1919,-0.1917,-0.1909,-0.181,-0.1737,-0.164,-0.1576,-0.1437,-0.1424,-0.1308,-0.1272,-0.1132,-0.117,-0.1108,-0.1085,-0.1284,-0.1281,-0.1278,0,-0.1401,-0.1418,-0.1517,-0.1544,-0.1583,-0.1651,-0.1694,-0.1801,-0.1842,-0.1894,-0.1881,-0.1811,-0.1707,-0.1526,-0.14,-0.1261,-0.1295,-0.1108,-0.1113,-0.1087,-0.1115,-0.1178,-0.117,-0.0967,-0.0962,-0.0959,-0.0955,0,-0.1353,-0.1362,-0.1412,-0.1459,-0.1498,-0.1558,-0.163,-0.1656,-0.1766,-0.1765,-0.1726,-0.1647,-0.1483,-0.1249,-0.1083,-0.1014,-0.107,-0.1021,-0.1026,-0.0875,-0.0909,-0.0887,-0.1052,-0.092,-0.0923,-0.0926,-0.0928,-0.0929,-0.1278,-0.1278,-0.1307,-0.1335,-0.1384,-0.1402,-0.1401,-0.1474,-0.1469,-0.1403,-0.1478,-0.1238,-0.1115,-0.0835,-0.0802,-0.0661,-0.0786,-0.0629,-0.0682,-0.0754,-0.0707,-0.0782,-0.0606,-0.0607,-0.0609,-0.061,-0.0611,0,-0.1164,-0.1157,-0.1188,-0.1196,-0.1185,-0.1257,-0.1301,-0.1246,-0.1166,-0.1077,-0.0978,-0.0658,-0.0507,-0.0434,-0.0336,-0.0326,-0.0383,-0.0348,-0.0423,-0.0436,-0.0501,-0.046,-0.0204,-0.0204,-0.0204,-0.0204,-0.0204,-0.0204,-0.1104,-0.1054,-0.1054,-0.0952,-0.0966,-0.0882,-0.0867,-0.0796,-0.0692,-0.0382,-0.0113,-0.0005,-0.0007,-0.0088,-0.0137,-0.0163,-0.0237,-0.0211,-0.0311,-0.0362,-0.0394,-0.0424,-0.0391,-0.0125,-0.0126,-0.0196,-0.0196,-0.0197]},{"header":{"parameterUnit":"m.s-1","parameterCategory":2,"la1":30.2991,"la2":30.254,"lo1":-89.0895,"lo2":-89.0444,"dy":0.0017,"dx":0.0017,"nx":28,"ny":28,"refTime":"2024-07-28T09:00:00:Z","depth":"0","parameterNumber":3,"parameterNumberName":"V-component_of_CURRENTS"},"data":[0,0,0,0,0,0,0,0,0,0,0,0,0,0,0,0,0,0,0,0,0,0,0,0,0,0,0,0,0,0,0,0,0,0,0,0,0,0,0,0,0,0,0,0,0,0,0,0,0,0,0,0,0,0,0,0,0,0,0.0545,0.0545,0,0.0632,0.0633,0.0634,0.0688,0.0688,0.0688,0.0688,0.0767,0.0769,0.0772,0,0,0,0,0,0,0,0,0,0,0,0,0,0.0498,0.0499,0.0544,0.0545,0.0546,0.0631,0.0633,0.0635,0.0688,0.0688,0.0688,0.0688,0.0766,0.0769,0.0772,0,0,0,0,0,0,0,0,0,0,0,0,0,0.055,0.0499,0.0544,0.0579,0.0583,0.0631,0.0633,0.0635,0.0688,0.0688,0.0688,0.0688,0.0765,0.0769,0.0772,0.0798,0,0,0.0782,0.0784,0,0,0,0,0,0,0,0,0.0547,0.0552,0.0573,0.0577,0.0581,0.0645,0.0646,0.0688,0.0688,0.0654,0.0688,0.0688,0.0722,0.0729,0.0753,0.0802,0.0805,0.0783,0.0785,0.0786,0.0787,0,0,0,0,0,0,0,0.0543,0.0549,0.0584,0.0574,0.0579,0.0615,0.0622,0.0655,0.0692,0.0657,0.0659,0.0661,0.0725,0.075,0.0755,0.0806,0.0783,0.0786,0.0788,0.0789,0.0937,0.0939,0,0,0,0,0,0,0.0519,0.0545,0.0581,0.0586,0.0557,0.0616,0.0624,0.0628,0.0692,0.07,0.0661,0.0663,0.0744,0.0751,0.0758,0.0805,0.0786,0.0789,0.0791,0.0935,0.0937,0.0939,0,0,0,0,0,0,0.0518,0.0521,0.0578,0.0564,0.0573,0.0616,0.0621,0.063,0.0654,0.0695,0.0704,0.0675,0.0744,0.0754,0.0794,0.0808,0.0791,0.0794,0.0933,0.0936,0.0938,0.0891,0,0,0,0,0,0,0.0516,0.052,0.0522,0.0562,0.0572,0.0605,0.0621,0.0632,0.0653,0.0657,0.0709,0.0716,0.0745,0.0789,0.0798,0.0812,0.0797,0.093,0.0934,0.0937,0.089,0.0892,0.0893,0,0,0,0,0,0.0514,0.0506,0.0522,0.0526,0.0571,0.0605,0.0615,0.0648,0.0653,0.0668,0.0705,0.0715,0.0819,0.0793,0.0803,0.0818,0.0929,0.0933,0.0937,0.0889,0.0891,0.0893,0,0,0,0,0,0,0.0482,0.0511,0.053,0.053,0.0567,0.0612,0.0617,0.0645,0.0688,0.0685,0.0728,0.0739,0.0785,0.0815,0.0785,0.0878,0.088,0.0886,0.084,0.0843,0.0844,0.08,0.08,0,0,0,0,0,0.0476,0.0481,0.052,0.0522,0.0531,0.0576,0.0594,0.062,0.0657,0.0676,0.0718,0.0766,0.0813,0.0834,0.0881,0.092,0.0911,0.0945,0.0946,0.0947,0.0923,0.0931,0.0929,0.0953,0.0953,0.0953,0,0,0.046,0.0479,0.048,0.0517,0.054,0.0558,0.0587,0.0606,0.0631,0.0676,0.0719,0.0769,0.0827,0.0877,0.0901,0.0899,0.0937,0.0952,0.0952,0.0927,0.0935,0.0931,0.0929,0.0956,0.0956,0.0955,0,0,0.0433,0.0448,0.0447,0.0473,0.0507,0.0538,0.0541,0.0593,0.0622,0.0673,0.0716,0.0768,0.0843,0.0887,0.0917,0.0957,0.0946,0.0985,0.0949,0.0958,0.0954,0.0951,0.0925,0.0919,0.0983,0.0983,0.0983,0,0.0417,0.0416,0.0453,0.0462,0.0468,0.0524,0.0523,0.057,0.0637,0.0652,0.068,0.0792,0.0847,0.0894,0.0918,0.0956,0.0941,0.0929,0.0953,0.095,0.0947,0.0922,0.0916,0.0981,0.0981,0.0981,0.0982,0,0.0391,0.0395,0.0388,0.0419,0.0443,0.0443,0.0502,0.0538,0.058,0.0625,0.0685,0.0768,0.0823,0.0871,0.0905,0.0928,0.0915,0.0949,0.0931,0.0941,0.0915,0.091,0.0978,0.0979,0.098,0.098,0,0,0.0338,0.0363,0.0361,0.0353,0.0409,0.0414,0.0459,0.0499,0.0501,0.0598,0.0603,0.0725,0.0758,0.0796,0.0856,0.0877,0.0861,0.0896,0.0898,0.0837,0.0839,0.0799,0.079,0.0887,0.0887,0.0886,0.0822,0,0.0302,0.0277,0.032,0.0304,0.0284,0.0351,0.0379,0.0431,0.0482,0.0511,0.0605,0.0643,0.0734,0.0749,0.0789,0.0845,0.0848,0.0873,0.0867,0.0866,0.0803,0.0784,0.0846,0.0791,0.0817,0.0817,0.0816,0,0.0258,0.024,0.0201,0.0208,0.0207,0.0222,0.0238,0.0278,0.0349,0.0388,0.0451,0.0515,0.0581,0.0648,0.0725,0.0729,0.0769,0.0812,0.0812,0.078,0.0817,0.0793,0.0781,0.0882,0.0808,0.0809,0.081,0,0.0157,0.0158,0.0107,0.0109,0.0136,0.0137,0.0165,0.0228,0.0239,0.0298,0.0297,0.0396,0.0428,0.0508,0.0623,0.0659,0.0676,0.0742,0.0736,0.0733,0.0787,0.0789,0.0842,0.0762,0.0762,0.0762,0.0762,0,0.0082,0.005,0.0048,0.0018,-0.0037,0.0032,0.0004,0.0051,0.0099,0.0092,0.0213,0.0226,0.0392,0.0442,0.0551,0.0612,0.062,0.07,0.071,0.0773,0.0775,0.0866,0.0902,0.076,0.076,0.0761,0.0761,0,-0.0014,-0.0012,-0.0076,-0.0084,-0.009,-0.013,-0.0102,-0.0116,-0.0054,-0.0065,-0.0056,0.0073,0.0156,0.029,0.0411,0.0499,0.0621,0.0591,0.0632,0.0647,0.0741,0.077,0.074,0.0809,0.0567,0.0565,0.0564,0,-0.0056,-0.0111,-0.0179,-0.0225,-0.0229,-0.0262,-0.0279,-0.0209,-0.0213,-0.015,-0.017,-0.009,0.0012,0.0159,0.0318,0.0449,0.0556,0.0546,0.064,0.0721,0.0763,0.0767,0.0831,0.0696,0.0696,0.0696,0.0696,0,-0.0147,-0.0185,-0.0245,-0.0354,-0.0399,-0.0438,-0.0446,-0.047,-0.0389,-0.0351,-0.0271,-0.0178,-0.0028,0.019,0.0324,0.0419,0.0615,0.0544,0.0646,0.0859,0.0851,0.0932,0.0736,0.0696,0.0696,0.0696,0.0696,0.0696,-0.0211,-0.0291,-0.038,-0.0473,-0.0528,-0.0573,-0.0571,-0.0538,-0.05,-0.0331,-0.0287,0.0024,0.0187,0.0428,0.0458,0.0624,0.0598,0.0734,0.0756,0.0746,0.0835,0.0596,0.0558,0.0557,0.0557,0.0556,0.0555,0,-0.0291,-0.037,-0.0477,-0.0576,-0.0631,-0.0632,-0.0645,-0.0564,-0.0458,-0.0221,-0.0022,0.0479,0.0599,0.0741,0.0857,0.0896,0.0934,0.0918,0.1001,0.1057,0.0878,0.0912,0.0928,0.0928,0.0928,0.0928,0.0928,0.0928,-0.0339,-0.0464,-0.0526,-0.0629,-0.0673,-0.0673,-0.0652,-0.0478,-0.026,0.0246,0.0723,0.1028,0.1253,0.1115,0.1161,0.1157,0.1269,0.1169,0.1216,0.1172,0.116,0.1148,0.1192,0.1267,0.1268,0.145,0.1452,0.1453]}],[{"header":{"parameterUnit":"m.s-1","parameterCategory":2,"la1":30.2991,"la2":30.254,"lo1":-89.0895,"lo2":-89.0444,"dy":0.0017,"dx":0.0017,"nx":28,"ny":28,"refTime":"2024-07-28T09:00:00:Z","depth":"2","parameterNumber":2,"parameterNumberName":"U-component_of_CURRENTS"},"data":[0,0,0,0,0,0,0,0,0,0,0,0,0,0,0,0,0,0,0,0,0,0,0,0,0,0,0,0,0,0,0,0,0,0,0,0,0,0,0,0,0,0,0,0,0,0,0,0,0,0,0,0,0,0,0,0,0,0,-0.2687,-0.2687,0,-0.2693,-0.2693,-0.2693,-0.2645,-0.2643,-0.2642,-0.2641,-0.2533,-0.2532,-0.253,0,0,0,0,0,0,0,0,0,0,0,0,0,-0.2608,-0.2609,-0.2687,-0.2687,-0.2687,-0.2693,-0.2693,-0.2693,-0.2645,-0.2643,-0.2642,-0.264,-0.2534,-0.2532,-0.253,0,0,0,0,0,0,0,0,0,0,0,0,0,-0.263,-0.261,-0.2687,-0.2664,-0.2662,-0.2693,-0.2693,-0.2693,-0.2645,-0.2643,-0.2641,-0.264,-0.2534,-0.2532,-0.253,-0.2553,0,0,-0.2522,-0.2521,0,0,0,0,0,0,0,0,-0.2629,-0.2633,-0.2667,-0.2666,-0.2664,-0.2667,-0.2626,-0.2641,-0.2646,-0.2651,-0.2641,-0.2639,-0.2569,-0.2564,-0.257,-0.2548,-0.2543,-0.2522,-0.252,-0.2519,-0.2518,0,0,0,0,0,0,0,-0.2628,-0.2632,-0.2688,-0.2668,-0.2665,-0.2645,-0.2647,-0.2629,-0.2618,-0.265,-0.2647,-0.265,-0.2567,-0.2573,-0.2567,-0.2542,-0.2522,-0.252,-0.2518,-0.2517,-0.2438,-0.2437,0,0,0,0,0,0,-0.2632,-0.2632,-0.2688,-0.2689,-0.2642,-0.2649,-0.265,-0.2667,-0.2621,-0.2613,-0.2651,-0.2647,-0.2578,-0.257,-0.2562,-0.2532,-0.2519,-0.2517,-0.2515,-0.2438,-0.2438,-0.2437,0,0,0,0,0,0,-0.2631,-0.2638,-0.2688,-0.2659,-0.2664,-0.2652,-0.2672,-0.2668,-0.2661,-0.2623,-0.2612,-0.2646,-0.2576,-0.2566,-0.2523,-0.2529,-0.2516,-0.2513,-0.2439,-0.2438,-0.2437,-0.2506,0,0,0,0,0,0,-0.2629,-0.2638,-0.2648,-0.2661,-0.2666,-0.2702,-0.2674,-0.267,-0.2667,-0.2661,-0.2615,-0.2604,-0.2574,-0.2527,-0.2521,-0.2525,-0.2511,-0.244,-0.2439,-0.2438,-0.2504,-0.2507,-0.251,0,0,0,0,0,-0.2626,-0.2643,-0.2649,-0.2655,-0.2683,-0.2703,-0.2704,-0.2687,-0.2668,-0.2672,-0.2625,-0.2605,-0.2515,-0.2525,-0.2518,-0.2522,-0.244,-0.2439,-0.2438,-0.2503,-0.2507,-0.251,0,0,0,0,0,0,-0.2612,-0.2641,-0.2647,-0.2671,-0.2687,-0.2694,-0.2692,-0.269,-0.2662,-0.2643,-0.2603,-0.2589,-0.2555,-0.2524,-0.2537,-0.2491,-0.2473,-0.247,-0.2525,-0.2528,-0.2531,-0.2581,-0.2509,0,0,0,0,0,-0.2619,-0.2635,-0.2663,-0.268,-0.2688,-0.2693,-0.2697,-0.2692,-0.2674,-0.2661,-0.2624,-0.2579,-0.2549,-0.2526,-0.2493,-0.2475,-0.2428,-0.2468,-0.2471,-0.2473,-0.2506,-0.2466,-0.2469,-0.2433,-0.2433,-0.2433,0,0,-0.2615,-0.2633,-0.2642,-0.2677,-0.2682,-0.2712,-0.2689,-0.2696,-0.2715,-0.2652,-0.2638,-0.2591,-0.2545,-0.252,-0.2501,-0.2492,-0.2438,-0.2472,-0.2475,-0.2507,-0.2465,-0.2469,-0.2473,-0.2432,-0.2432,-0.2432,0,0,-0.2622,-0.2637,-0.2657,-0.2679,-0.2699,-0.271,-0.2714,-0.272,-0.2713,-0.2699,-0.2657,-0.262,-0.2563,-0.2546,-0.2528,-0.2529,-0.2457,-0.2497,-0.2555,-0.2514,-0.2518,-0.2521,-0.2384,-0.2374,-0.2497,-0.2497,-0.2497,0,-0.2613,-0.2653,-0.2664,-0.2697,-0.2711,-0.2713,-0.2741,-0.2754,-0.274,-0.2724,-0.2693,-0.2616,-0.2587,-0.2572,-0.2578,-0.2543,-0.2469,-0.255,-0.2522,-0.2524,-0.2526,-0.2386,-0.2375,-0.25,-0.25,-0.2499,-0.2499,0,-0.2651,-0.2679,-0.2688,-0.2735,-0.2756,-0.2772,-0.2801,-0.2798,-0.2775,-0.277,-0.273,-0.2688,-0.264,-0.2624,-0.2611,-0.2608,-0.2527,-0.2534,-0.2524,-0.2535,-0.2383,-0.2371,-0.2505,-0.2503,-0.2502,-0.2502,0,0,-0.2622,-0.2699,-0.2699,-0.2725,-0.2772,-0.2789,-0.282,-0.2835,-0.2819,-0.2808,-0.2771,-0.2767,-0.2728,-0.2709,-0.2675,-0.2662,-0.2599,-0.2616,-0.2612,-0.2496,-0.2425,-0.2291,-0.2262,-0.2597,-0.2597,-0.2598,-0.2283,0,-0.2636,-0.2704,-0.2737,-0.2784,-0.2816,-0.2831,-0.2851,-0.2863,-0.2837,-0.2797,-0.278,-0.2735,-0.2766,-0.2719,-0.2725,-0.2633,-0.2581,-0.2679,-0.2418,-0.2409,-0.2306,-0.2251,-0.214,-0.1848,-0.2271,-0.2268,-0.2267,0,-0.2651,-0.2697,-0.2753,-0.2797,-0.2807,-0.2835,-0.283,-0.2851,-0.2824,-0.2788,-0.2767,-0.2729,-0.2719,-0.2728,-0.2622,-0.2673,-0.2571,-0.2499,-0.2485,-0.2347,-0.2256,-0.1919,-0.1808,-0.2245,-0.2246,-0.2248,-0.225,0,-0.262,-0.2692,-0.273,-0.2754,-0.2816,-0.2821,-0.2843,-0.2834,-0.2813,-0.278,-0.2708,-0.2709,-0.2625,-0.2597,-0.2484,-0.254,-0.2308,-0.2349,-0.2114,-0.2097,-0.195,-0.1922,-0.2261,-0.2262,-0.2262,-0.2263,-0.2264,0,-0.2617,-0.2639,-0.2716,-0.2744,-0.2755,-0.2806,-0.2783,-0.2794,-0.2755,-0.2679,-0.2704,-0.2597,-0.2594,-0.2464,-0.2426,-0.22,-0.225,-0.2107,-0.2026,-0.1957,-0.1935,-0.227,-0.2276,-0.2251,-0.2254,-0.2256,-0.2258,0,-0.257,-0.2627,-0.2668,-0.2735,-0.2746,-0.2754,-0.2756,-0.2713,-0.2699,-0.2586,-0.2569,-0.2469,-0.2289,-0.2229,-0.2077,-0.2038,-0.1901,-0.1799,-0.1669,-0.1583,-0.172,-0.1732,-0.1512,-0.1505,-0.15,-0.1495,-0.1491,0,-0.2555,-0.2579,-0.2648,-0.2646,-0.2671,-0.2684,-0.2658,-0.268,-0.2617,-0.2478,-0.2389,-0.2197,-0.2001,-0.1718,-0.1629,-0.146,-0.1612,-0.1267,-0.1407,-0.1709,-0.1652,-0.1673,-0.1693,-0.1179,-0.1173,-0.1167,-0.1163,0,-0.2512,-0.2532,-0.2563,-0.2564,-0.2553,-0.2532,-0.2505,-0.2452,-0.2408,-0.2289,-0.2064,-0.1904,-0.1602,-0.1353,-0.115,-0.1085,-0.1319,-0.1152,-0.1473,-0.1417,-0.1378,-0.1328,-0.1361,-0.1117,-0.1122,-0.1125,-0.1128,-0.1129,-0.2446,-0.2449,-0.2468,-0.2444,-0.2422,-0.2336,-0.2254,-0.2177,-0.2037,-0.1794,-0.1772,-0.1485,-0.1341,-0.0966,-0.0831,-0.0767,-0.0885,-0.0898,-0.0921,-0.0947,-0.0996,-0.0954,-0.0614,-0.0616,-0.0617,-0.0619,-0.062,0,-0.2333,-0.2343,-0.2331,-0.2282,-0.217,-0.2213,-0.2091,-0.1914,-0.1661,-0.1538,-0.1327,-0.1053,-0.0817,-0.0719,-0.0523,-0.0444,-0.0524,-0.0443,-0.0576,-0.0618,-0.0657,-0.0702,-0.0235,-0.0234,-0.0233,-0.0232,0,0,-0.2272,-0.2219,-0.2209,-0.2013,-0.1966,-0.1765,-0.1659,-0.1383,-0.1238,-0.0963,-0.0857,-0.0835,-0.0752,-0.0547,-0.0426,-0.0308,-0.0492,-0.0289,-0.0595,-0.0799,-0.0838,-0.09,-0.1011,0,0,0,0,0]},{"header":{"parameterUnit":"m.s-1","parameterCategory":2,"la1":30.2991,"la2":30.254,"lo1":-89.0895,"lo2":-89.0444,"dy":0.0017,"dx":0.0017,"nx":28,"ny":28,"refTime":"2024-07-28T09:00:00:Z","depth":"2","parameterNumber":3,"parameterNumberName":"V-component_of_CURRENTS"},"data":[0,0,0,0,0,0,0,0,0,0,0,0,0,0,0,0,0,0,0,0,0,0,0,0,0,0,0,0,0,0,0,0,0,0,0,0,0,0,0,0,0,0,0,0,0,0,0,0,0,0,0,0,0,0,0,0,0,0,-0.0487,-0.0487,0,-0.042,-0.0419,-0.0418,-0.0366,-0.0365,-0.0365,-0.0364,-0.0234,-0.0231,-0.0228,0,0,0,0,0,0,0,0,0,0,0,0,0,-0.0501,-0.0502,-0.0488,-0.0487,-0.0486,-0.042,-0.0419,-0.0418,-0.0366,-0.0365,-0.0364,-0.0364,-0.0235,-0.0231,-0.0228,0,0,0,0,0,0,0,0,0,0,0,0,0,-0.0471,-0.0502,-0.0488,-0.0452,-0.0448,-0.042,-0.0419,-0.0418,-0.0366,-0.0365,-0.0364,-0.0364,-0.0236,-0.0232,-0.0227,-0.0215,0,0,-0.0214,-0.0212,0,0,0,0,0,0,0,0,-0.0473,-0.0471,-0.0458,-0.0454,-0.045,-0.04,-0.0376,-0.0347,-0.0366,-0.0397,-0.0364,-0.0363,-0.0284,-0.0276,-0.0266,-0.0209,-0.0203,-0.0213,-0.021,-0.0209,-0.0207,0,0,0,0,0,0,0,-0.0475,-0.0473,-0.0461,-0.0457,-0.0452,-0.0415,-0.041,-0.037,-0.0345,-0.0394,-0.039,-0.0383,-0.0282,-0.027,-0.0262,-0.0201,-0.0213,-0.0209,-0.0207,-0.0205,-0.0068,-0.0067,0,0,0,0,0,0,-0.0488,-0.0475,-0.0463,-0.0459,-0.046,-0.0416,-0.041,-0.0417,-0.0346,-0.0335,-0.0384,-0.0381,-0.0278,-0.0267,-0.0257,-0.0196,-0.0209,-0.0204,-0.0202,-0.0069,-0.0068,-0.0067,0,0,0,0,0,0,-0.0489,-0.0488,-0.0466,-0.0464,-0.0459,-0.0417,-0.0424,-0.0416,-0.0406,-0.0339,-0.0326,-0.0382,-0.0277,-0.0264,-0.0214,-0.0192,-0.0202,-0.0198,-0.007,-0.0069,-0.0067,-0.01,0,0,0,0,0,0,-0.049,-0.0489,-0.0497,-0.0466,-0.0459,-0.0451,-0.0424,-0.0415,-0.0403,-0.0399,-0.0334,-0.0321,-0.0276,-0.0221,-0.0209,-0.0186,-0.0195,-0.0071,-0.007,-0.0068,-0.01,-0.01,-0.01,0,0,0,0,0,-0.0491,-0.0515,-0.0499,-0.0497,-0.0473,-0.0452,-0.0445,-0.0412,-0.0404,-0.0401,-0.0351,-0.0323,-0.0201,-0.0217,-0.0203,-0.0178,-0.0072,-0.007,-0.0068,-0.01,-0.01,-0.01,0,0,0,0,0,0,-0.0526,-0.051,-0.0492,-0.051,-0.048,-0.0443,-0.0442,-0.0421,-0.0383,-0.0377,-0.0318,-0.0301,-0.0249,-0.0212,-0.0231,-0.0132,-0.0129,-0.0124,-0.0158,-0.0157,-0.0157,-0.016,-0.0191,0,0,0,0,0,-0.0538,-0.0552,-0.0518,-0.0531,-0.052,-0.0483,-0.0471,-0.0447,-0.041,-0.0394,-0.0347,-0.0289,-0.023,-0.0195,-0.0147,-0.0098,-0.0052,-0.007,-0.007,-0.007,-0.0062,0.0031,0.004,-0.006,-0.006,-0.006,0,0,-0.0554,-0.0548,-0.0555,-0.0538,-0.0517,-0.0498,-0.0475,-0.0463,-0.0438,-0.0384,-0.0344,-0.0295,-0.0221,-0.0161,-0.0133,-0.0125,-0.0021,-0.0067,-0.0068,-0.0059,0.0034,0.0044,0.0052,-0.0059,-0.0059,-0.0059,0,0,-0.0594,-0.059,-0.0608,-0.0585,-0.0556,-0.0523,-0.0523,-0.0484,-0.0458,-0.0416,-0.0362,-0.0302,-0.0229,-0.0158,-0.0114,-0.0085,-0.0032,-0.0069,-0.0057,0.0032,0.0041,0.0049,0.0099,0.0113,-0.0058,-0.0058,-0.0058,0,-0.0613,-0.0625,-0.0607,-0.0607,-0.0582,-0.0538,-0.0526,-0.0495,-0.0441,-0.0397,-0.0408,-0.0266,-0.0223,-0.011,-0.0103,-0.0084,-0.0036,-0.0068,0.0032,0.0041,0.0051,0.01,0.0115,-0.0059,-0.0059,-0.0059,-0.0059,0,-0.0653,-0.0652,-0.0662,-0.0639,-0.0609,-0.0599,-0.0541,-0.0502,-0.0469,-0.0418,-0.0326,-0.0265,-0.0169,-0.0148,-0.0121,-0.0018,-0.0008,0.0011,0.0027,0.0059,0.0109,0.0125,-0.0061,-0.0061,-0.006,-0.006,0,0,-0.0718,-0.0695,-0.0695,-0.0671,-0.0621,-0.0596,-0.0544,-0.0463,-0.0405,-0.0358,-0.0275,-0.0193,-0.0152,-0.0101,-0.0049,0.0021,0.0104,0.004,0.0045,0.0081,0.0284,0.0187,0.0195,0.0147,0.015,0.0153,0.0284,0,-0.0748,-0.0757,-0.0723,-0.0691,-0.068,-0.0598,-0.0543,-0.0459,-0.0388,-0.0301,-0.0216,-0.0136,-0.0134,-0.0087,-0.0015,0.0083,0.015,0.0066,0.0256,0.0261,0.0165,0.0213,0.0236,0.0346,0.0301,0.0303,0.0305,0,-0.0793,-0.0785,-0.0786,-0.0695,-0.0677,-0.0644,-0.0514,-0.0456,-0.0315,-0.026,-0.0157,-0.0093,0.0022,0.0003,0.0186,0.0136,0.0204,0.0264,0.0272,0.0207,0.0195,0.0314,0.0378,0.0333,0.0331,0.0329,0.0327,0,-0.0856,-0.0811,-0.0812,-0.0793,-0.0702,-0.0657,-0.0582,-0.0447,-0.0372,-0.0232,-0.0164,-0.0024,0.005,0.0163,0.0255,0.0243,0.0439,0.0446,0.0425,0.0418,0.0487,0.0479,0.0576,0.0576,0.0576,0.0575,0.0575,0,-0.0912,-0.0897,-0.0844,-0.0848,-0.0791,-0.0702,-0.0614,-0.0515,-0.0373,-0.0263,-0.0155,-0.0054,0.0096,0.0216,0.0292,0.0394,0.0474,0.0435,0.0456,0.047,0.046,0.0489,0.0478,0.058,0.0579,0.0578,0.0577,0,-0.1,-0.0974,-0.0962,-0.0879,-0.0839,-0.0804,-0.0648,-0.0567,-0.0435,-0.0289,-0.0245,-0.0052,0.0098,0.0219,0.0408,0.0433,0.0541,0.0554,0.0525,0.0537,0.0454,0.0439,0.057,0.0567,0.0566,0.0564,0.0563,0,-0.105,-0.1071,-0.1012,-0.0986,-0.0954,-0.0872,-0.0793,-0.0632,-0.0531,-0.0283,-0.021,-0.0034,0.0086,0.0285,0.0392,0.0507,0.0519,0.056,0.0527,0.0452,0.046,0.0447,0.0435,0.0619,0.0619,0.0618,0.0618,0,-0.1141,-0.1139,-0.1131,-0.1082,-0.1022,-0.0925,-0.0795,-0.0728,-0.051,-0.0401,-0.0204,-0.0096,0.0128,0.0271,0.0382,0.0449,0.0534,0.0544,0.0556,0.0569,0.0497,0.0503,0.0492,0.0613,0.0613,0.0613,0.0614,0.0614,-0.1206,-0.1231,-0.1218,-0.1162,-0.1079,-0.0964,-0.0888,-0.0756,-0.0629,-0.041,-0.0258,-0.0077,0.0127,0.0276,0.0379,0.0469,0.0476,0.0516,0.0521,0.0526,0.046,0.0384,0.0466,0.0466,0.0466,0.0465,0.0465,0,-0.1283,-0.1292,-0.1264,-0.1191,-0.1106,-0.1026,-0.0863,-0.0782,-0.0668,-0.0462,-0.0303,-0.0087,0.0085,0.0266,0.0411,0.0474,0.0509,0.0475,0.0545,0.055,0.0555,0.0492,0.0506,0.0506,0.0506,0.0506,0,0,-0.1323,-0.1347,-0.133,-0.1226,-0.1146,-0.101,-0.0923,-0.0816,-0.0661,-0.0498,-0.0342,-0.0118,0.0123,0.0225,0.036,0.0438,0.0458,0.043,0.0399,0.0474,0.0477,0.0589,0.0497,0,0,0,0,0]}],[{"header":{"parameterUnit":"m.s-1","parameterCategory":2,"la1":30.2991,"la2":30.254,"lo1":-89.0895,"lo2":-89.0444,"dy":0.0017,"dx":0.0017,"nx":28,"ny":28,"refTime":"2024-07-28T09:00:00:Z","depth":"4","parameterNumber":2,"parameterNumberName":"U-component_of_CURRENTS"},"data":[0,0,0,0,0,0,0,0,0,0,0,0,0,0,0,0,0,0,0,0,0,0,0,0,0,0,0,0,0,0,0,0,0,0,0,0,0,0,0,0,0,0,0,0,0,0,0,0,0,0,0,0,0,0,0,0,0,0,-0.0771,-0.0772,0,-0.0778,-0.0778,-0.0778,-0.0832,-0.0834,-0.0835,-0.0836,-0.0965,-0.0967,-0.0969,0,0,0,0,0,0,0,0,0,0,0,0,0,-0.0743,-0.0743,-0.0771,-0.0772,-0.0772,-0.0778,-0.0778,-0.0778,-0.0832,-0.0834,-0.0835,-0.0837,-0.0964,-0.0966,-0.0969,0,0,0,0,0,0,0,0,0,0,0,0,0,-0.0752,-0.0743,-0.0771,-0.08,-0.0803,-0.0778,-0.0778,-0.0778,-0.0832,-0.0834,-0.0836,-0.0838,-0.0963,-0.0966,-0.0969,-0.0947,0,0,-0.0979,-0.098,0,0,0,0,0,0,0,0,-0.0752,-0.0753,-0.0796,-0.0798,-0.0801,-0.0807,-0.0815,-0.0841,-0.0831,-0.082,-0.0836,-0.0839,-0.0922,-0.0929,-0.0923,-0.0953,-0.0958,-0.0979,-0.0981,-0.0983,-0.0983,0,0,0,0,0,0,0,-0.0751,-0.0753,-0.0773,-0.0796,-0.0799,-0.0791,-0.0795,-0.0819,-0.0861,-0.0821,-0.0825,-0.0826,-0.0925,-0.0919,-0.0926,-0.096,-0.0979,-0.0982,-0.0984,-0.0985,-0.1108,-0.1109,0,0,0,0,0,0,-0.0753,-0.0752,-0.0773,-0.0774,-0.0782,-0.079,-0.0795,-0.0802,-0.0858,-0.0868,-0.0825,-0.0829,-0.0913,-0.0923,-0.0931,-0.1033,-0.0983,-0.0985,-0.0987,-0.1107,-0.1108,-0.111,0,0,0,0,0,0,-0.0752,-0.0755,-0.0773,-0.0763,-0.0765,-0.0789,-0.0797,-0.0801,-0.0801,-0.086,-0.0872,-0.0821,-0.0915,-0.0927,-0.0982,-0.1035,-0.0987,-0.099,-0.1105,-0.1107,-0.1109,-0.1158,0,0,0,0,0,0,-0.0751,-0.0754,-0.0771,-0.0764,-0.0766,-0.0784,-0.0795,-0.08,-0.0799,-0.0805,-0.086,-0.0874,-0.0917,-0.0977,-0.0985,-0.1038,-0.0992,-0.1103,-0.1106,-0.1108,-0.1155,-0.1161,-0.1167,0,0,0,0,0,-0.075,-0.0754,-0.0771,-0.0774,-0.0784,-0.0784,-0.0785,-0.0807,-0.0797,-0.081,-0.085,-0.0872,-0.1,-0.098,-0.099,-0.1045,-0.1102,-0.1105,-0.1108,-0.1152,-0.116,-0.1167,0,0,0,0,0,0,-0.0751,-0.0759,-0.0779,-0.0787,-0.0801,-0.0795,-0.079,-0.0795,-0.0827,-0.0844,-0.0878,-0.0896,-0.0966,-0.0985,-0.0961,-0.1086,-0.1058,-0.1063,-0.1089,-0.1097,-0.1103,-0.1071,-0.0995,0,0,0,0,0,-0.0757,-0.0768,-0.0776,-0.0789,-0.0779,-0.0779,-0.0779,-0.0809,-0.0827,-0.0841,-0.0887,-0.0936,-0.098,-0.1021,-0.1065,-0.1121,-0.1097,-0.1165,-0.1171,-0.1176,-0.1156,-0.1202,-0.121,-0.112,-0.112,-0.112,0,0,-0.0766,-0.0768,-0.078,-0.0791,-0.0783,-0.078,-0.0784,-0.0797,-0.0838,-0.0852,-0.0918,-0.0953,-0.0994,-0.1075,-0.1109,-0.1104,-0.1178,-0.118,-0.1185,-0.1161,-0.1206,-0.1215,-0.1222,-0.1122,-0.1122,-0.1121,0,0,-0.0765,-0.0775,-0.0776,-0.0781,-0.0794,-0.0794,-0.0793,-0.0812,-0.0863,-0.0918,-0.0951,-0.101,-0.1071,-0.1135,-0.116,-0.1217,-0.12,-0.1239,-0.1263,-0.1309,-0.1316,-0.1323,-0.125,-0.125,-0.1257,-0.1257,-0.1257,0,-0.0775,-0.0773,-0.078,-0.0774,-0.0766,-0.0788,-0.0781,-0.0834,-0.0897,-0.0939,-0.0956,-0.1043,-0.1099,-0.1173,-0.1214,-0.1234,-0.121,-0.1234,-0.1317,-0.1323,-0.1329,-0.1254,-0.1253,-0.126,-0.1259,-0.1259,-0.1259,0,-0.0766,-0.0772,-0.0755,-0.0757,-0.0762,-0.0759,-0.0813,-0.0885,-0.0924,-0.0966,-0.1058,-0.1126,-0.1185,-0.122,-0.1237,-0.1317,-0.1264,-0.1309,-0.1295,-0.1341,-0.1258,-0.1256,-0.1264,-0.1263,-0.1262,-0.1261,0,0,-0.0756,-0.075,-0.0748,-0.0735,-0.0749,-0.0742,-0.0834,-0.0891,-0.0929,-0.1037,-0.1091,-0.119,-0.1224,-0.1254,-0.1304,-0.1343,-0.1369,-0.1348,-0.1349,-0.1267,-0.1378,-0.1304,-0.1293,-0.1439,-0.144,-0.1441,-0.1283,0,-0.0735,-0.0728,-0.0725,-0.0704,-0.0687,-0.0738,-0.0808,-0.0896,-0.0954,-0.1038,-0.1147,-0.1214,-0.1242,-0.1291,-0.1339,-0.1358,-0.1374,-0.14,-0.1351,-0.1347,-0.1273,-0.1295,-0.1446,-0.1281,-0.1281,-0.1281,-0.128,0,-0.0711,-0.0711,-0.0702,-0.0686,-0.0676,-0.0691,-0.0755,-0.0829,-0.0975,-0.1033,-0.1122,-0.1194,-0.129,-0.1327,-0.1353,-0.1366,-0.1377,-0.1373,-0.1369,-0.1281,-0.1273,-0.1241,-0.1276,-0.1277,-0.1277,-0.1277,-0.1277,0,-0.0688,-0.0668,-0.0656,-0.0652,-0.0671,-0.0707,-0.0739,-0.0848,-0.0917,-0.1055,-0.1093,-0.1189,-0.1243,-0.13,-0.1327,-0.1353,-0.1309,-0.1359,-0.1274,-0.1263,-0.1353,-0.1349,-0.1386,-0.1386,-0.1386,-0.1387,-0.1387,0,-0.0642,-0.0622,-0.0658,-0.0646,-0.0655,-0.0696,-0.0733,-0.0796,-0.0917,-0.0961,-0.1103,-0.1141,-0.1246,-0.1262,-0.1299,-0.1244,-0.1298,-0.1247,-0.1239,-0.1367,-0.1367,-0.1347,-0.1344,-0.1381,-0.1382,-0.1383,-0.1384,0,-0.0605,-0.0628,-0.0598,-0.0624,-0.0643,-0.0665,-0.0731,-0.0771,-0.088,-0.0953,-0.1021,-0.11,-0.1101,-0.1149,-0.1174,-0.1165,-0.1166,-0.1146,-0.1182,-0.1182,-0.1075,-0.1077,-0.1009,-0.1006,-0.1003,-0.1,-0.0998,0,-0.0586,-0.0585,-0.0579,-0.0587,-0.0592,-0.0649,-0.0701,-0.0783,-0.0809,-0.0911,-0.0932,-0.098,-0.1031,-0.0957,-0.1019,-0.1022,-0.1057,-0.1003,-0.1127,-0.1047,-0.1046,-0.1053,-0.1059,-0.0994,-0.0993,-0.0992,-0.0991,0,-0.0544,-0.0543,-0.052,-0.055,-0.0571,-0.059,-0.0649,-0.0671,-0.0767,-0.084,-0.0868,-0.0922,-0.0879,-0.0898,-0.0885,-0.092,-0.1018,-0.0973,-0.0981,-0.1097,-0.1028,-0.1031,-0.104,-0.0981,-0.0983,-0.0984,-0.0984,0,-0.0517,-0.0489,-0.0484,-0.0491,-0.0517,-0.0537,-0.0569,-0.0612,-0.0666,-0.0775,-0.0759,-0.0826,-0.085,-0.084,-0.0851,-0.0851,-0.0873,-0.0877,-0.089,-0.0902,-0.0954,-0.0856,-0.0731,0,0,0,0,0,-0.05,-0.0463,-0.0446,-0.0435,-0.0449,-0.047,-0.0534,-0.0579,-0.0652,-0.0656,-0.0726,-0.0728,-0.0756,-0.0774,-0.0758,-0.079,-0.0857,-0.0766,-0.0864,-0.0925,-0.0937,-0.1016,0,0,0,0,0,0,-0.0487,-0.0461,-0.0423,-0.0397,-0.0387,-0.0406,-0.0447,-0.0497,-0.0512,-0.0594,-0.061,-0.0676,-0.07,-0.0752,-0.0738,-0.0743,-0.0792,-0.0801,-0.0799,-0.0918,-0.0929,-0.0938,-0.1024,0,0,0,0,0]},{"header":{"parameterUnit":"m.s-1","parameterCategory":2,"la1":30.2991,"la2":30.254,"lo1":-89.0895,"lo2":-89.0444,"dy":0.0017,"dx":0.0017,"nx":28,"ny":28,"refTime":"2024-07-28T09:00:00:Z","depth":"4","parameterNumber":3,"parameterNumberName":"V-component_of_CURRENTS"},"data":[0,0,0,0,0,0,0,0,0,0,0,0,0,0,0,0,0,0,0,0,0,0,0,0,0,0,0,0,0,0,0,0,0,0,0,0,0,0,0,0,0,0,0,0,0,0,0,0,0,0,0,0,0,0,0,0,0,0,-0.0539,-0.054,0,-0.0606,-0.0607,-0.0608,-0.0619,-0.0618,-0.0618,-0.0617,-0.0633,-0.0635,-0.0636,0,0,0,0,0,0,0,0,0,0,0,0,0,-0.0488,-0.0489,-0.0539,-0.054,-0.054,-0.0606,-0.0607,-0.0608,-0.0619,-0.0618,-0.0617,-0.0616,-0.0633,-0.0635,-0.0636,0,0,0,0,0,0,0,0,0,0,0,0,0,-0.0531,-0.0489,-0.0539,-0.0551,-0.0553,-0.0605,-0.0607,-0.0609,-0.062,-0.0618,-0.0617,-0.0616,-0.0633,-0.0634,-0.0636,-0.0675,0,0,-0.0642,-0.0643,0,0,0,0,0,0,0,0,-0.0529,-0.0533,-0.0549,-0.055,-0.0552,-0.06,-0.0595,-0.0627,-0.062,-0.0598,-0.0617,-0.0615,-0.0616,-0.0619,-0.0641,-0.0676,-0.0676,-0.0642,-0.0643,-0.0644,-0.0645,0,0,0,0,0,0,0,-0.0525,-0.0531,-0.0569,-0.055,-0.0552,-0.0576,-0.058,-0.0602,-0.0616,-0.06,-0.06,-0.0602,-0.0617,-0.0639,-0.0641,-0.0677,-0.0642,-0.0644,-0.0645,-0.0646,-0.0745,-0.0747,0,0,0,0,0,0,-0.0508,-0.0528,-0.0567,-0.0571,-0.0533,-0.0577,-0.0582,-0.0589,-0.0617,-0.0619,-0.0603,-0.0602,-0.0636,-0.0639,-0.0641,-0.0695,-0.0644,-0.0646,-0.0647,-0.0744,-0.0746,-0.0747,0,0,0,0,0,0,-0.0507,-0.0511,-0.0564,-0.0548,-0.0556,-0.0578,-0.0586,-0.0591,-0.0618,-0.0619,-0.0621,-0.0625,-0.0635,-0.0639,-0.0673,-0.0695,-0.0647,-0.0649,-0.0742,-0.0745,-0.0747,-0.0797,0,0,0,0,0,0,-0.0506,-0.0511,-0.0525,-0.0547,-0.0556,-0.0604,-0.0587,-0.0593,-0.0619,-0.0619,-0.0638,-0.0638,-0.0635,-0.067,-0.0675,-0.0697,-0.065,-0.074,-0.0743,-0.0746,-0.0794,-0.0801,-0.0807,0,0,0,0,0,-0.0504,-0.0522,-0.0525,-0.053,-0.0569,-0.0604,-0.0613,-0.0626,-0.0621,-0.0644,-0.0656,-0.0638,-0.069,-0.0673,-0.0678,-0.0701,-0.0739,-0.0742,-0.0746,-0.0791,-0.08,-0.0807,0,0,0,0,0,0,-0.0509,-0.0525,-0.0529,-0.0552,-0.0579,-0.0605,-0.063,-0.0637,-0.0668,-0.0668,-0.0665,-0.0667,-0.0703,-0.0701,-0.0682,-0.0739,-0.0709,-0.0714,-0.0742,-0.075,-0.0757,-0.0761,-0.0652,0,0,0,0,0,-0.0515,-0.0533,-0.0553,-0.0575,-0.059,-0.0614,-0.0634,-0.0643,-0.0665,-0.0679,-0.0698,-0.0711,-0.0723,-0.0734,-0.0751,-0.079,-0.0742,-0.0806,-0.0813,-0.0818,-0.0826,-0.0792,-0.0796,-0.0758,-0.0758,-0.0758,0,0,-0.0523,-0.0535,-0.0545,-0.0578,-0.0602,-0.0633,-0.0625,-0.0659,-0.0686,-0.0675,-0.0733,-0.0741,-0.074,-0.0779,-0.0794,-0.0778,-0.0795,-0.0822,-0.0827,-0.0832,-0.0796,-0.0799,-0.0802,-0.0761,-0.076,-0.076,0,0,-0.0547,-0.056,-0.0585,-0.0613,-0.0647,-0.0658,-0.0669,-0.071,-0.0732,-0.0779,-0.0775,-0.08,-0.0833,-0.084,-0.0841,-0.0898,-0.0833,-0.0902,-0.0941,-0.0908,-0.091,-0.0912,-0.081,-0.0802,-0.0905,-0.0905,-0.0905,0,-0.0558,-0.059,-0.0601,-0.0637,-0.0662,-0.0669,-0.0706,-0.0732,-0.0782,-0.0802,-0.08,-0.0848,-0.0859,-0.0881,-0.0911,-0.0913,-0.0859,-0.0907,-0.0915,-0.0916,-0.0916,-0.0812,-0.0803,-0.0908,-0.0907,-0.0907,-0.0907,0,-0.0596,-0.0635,-0.0656,-0.0696,-0.0723,-0.076,-0.0784,-0.0822,-0.0839,-0.0857,-0.0899,-0.0916,-0.0934,-0.0949,-0.0953,-0.0972,-0.0917,-0.0924,-0.0888,-0.0923,-0.081,-0.08,-0.0912,-0.0911,-0.091,-0.0909,0,0,-0.0591,-0.0667,-0.0678,-0.0706,-0.076,-0.0776,-0.0829,-0.0868,-0.0879,-0.0931,-0.0949,-0.1,-0.0998,-0.1001,-0.1004,-0.1,-0.0958,-0.0977,-0.0974,-0.0865,-0.0828,-0.0727,-0.0704,-0.0965,-0.0965,-0.0964,-0.073,0,-0.0624,-0.0695,-0.0724,-0.0784,-0.0822,-0.085,-0.0897,-0.0929,-0.0937,-0.0959,-0.0975,-0.0994,-0.1015,-0.1021,-0.1021,-0.0979,-0.094,-0.1017,-0.0822,-0.0815,-0.0714,-0.0694,-0.0964,-0.0721,-0.0719,-0.0717,-0.0716,0,-0.065,-0.0696,-0.0772,-0.0833,-0.085,-0.0889,-0.0926,-0.0965,-0.0991,-0.0999,-0.1009,-0.1001,-0.101,-0.1021,-0.0939,-0.0984,-0.0916,-0.0875,-0.0864,-0.0751,-0.0697,-0.0693,-0.0695,-0.0697,-0.0698,-0.07,-0.0701,0,-0.0634,-0.0718,-0.0776,-0.0803,-0.088,-0.092,-0.0957,-0.0992,-0.1004,-0.1019,-0.0996,-0.0998,-0.0966,-0.0928,-0.0844,-0.0889,-0.0715,-0.0752,-0.0578,-0.0566,-0.0704,-0.0706,-0.068,-0.068,-0.0681,-0.0681,-0.0682,0,-0.0654,-0.0698,-0.0778,-0.0813,-0.0872,-0.0927,-0.0967,-0.0999,-0.1016,-0.0994,-0.1015,-0.0956,-0.0948,-0.0844,-0.0802,-0.0624,-0.066,-0.0565,-0.0509,-0.0724,-0.0731,-0.0692,-0.0696,-0.0672,-0.0674,-0.0676,-0.0678,0,-0.0644,-0.0704,-0.0759,-0.0845,-0.0876,-0.0918,-0.0977,-0.0982,-0.1006,-0.0964,-0.0967,-0.09,-0.0762,-0.0694,-0.0574,-0.052,-0.0404,-0.0329,-0.0492,-0.0453,-0.0281,-0.0291,-0.0113,-0.0108,-0.0103,-0.01,-0.0097,0,-0.065,-0.0689,-0.0766,-0.0799,-0.085,-0.0914,-0.0953,-0.0992,-0.0968,-0.0901,-0.0856,-0.0727,-0.0666,-0.0384,-0.0352,-0.0194,-0.0202,-0.0117,-0.0288,-0.0264,-0.0228,-0.0245,-0.0261,-0.0089,-0.0088,-0.0087,-0.0086,0,-0.0661,-0.0689,-0.0731,-0.0793,-0.084,-0.0871,-0.0911,-0.0885,-0.0885,-0.0877,-0.0715,-0.0602,-0.0411,-0.0297,-0.0151,-0.007,-0.0181,-0.0071,-0.0082,-0.0243,-0.0233,-0.0205,-0.0226,-0.007,-0.0073,-0.0074,-0.0075,0,-0.0657,-0.0679,-0.073,-0.0779,-0.0822,-0.0828,-0.0851,-0.0801,-0.0782,-0.07,-0.0623,-0.0483,-0.0404,-0.0221,-0.0099,0.0007,-0.0009,-0.0023,-0.0038,-0.0054,-0.0145,-0.0131,0.0132,0,0,0,0,0,-0.065,-0.0676,-0.0713,-0.0759,-0.0788,-0.0817,-0.0817,-0.0821,-0.0787,-0.0653,-0.0642,-0.0468,-0.0261,-0.018,-0.0051,-0.0057,-0.0017,0.0095,-0.0049,0.0016,-0.0002,-0.0116,0,0,0,0,0,0,-0.0651,-0.0689,-0.0704,-0.0729,-0.0753,-0.078,-0.078,-0.0759,-0.0679,-0.0627,-0.0513,-0.0443,-0.025,-0.0336,-0.0052,-0.002,-0.0093,0.0187,0.019,0.0026,0.001,-0.0005,-0.0128,0,0,0,0,0]}]]